Location: Blienschwiller
(48.3416°N, 7.4182°E)
Time: 11:49:19
(UTC+00:00)

Cosmos 1328 Rocket - Pass Details

Date: 18 February 2020
Orbit: 601 x 628 km, 82.5° (Epoch: 08 April)

Event Time Altitude Azimuth Distance (km) Brightness Sun altitude
Rises 05:41:25 0° 179° (S) 2,900 7.1 -9.3°
Reaches altitude 10° 05:43:39 10° 176° (S) 2,000 6.3 -8.9°
Maximum altitude 05:48:02 63° 96° (E) 707 4.2 -8.2°
Drops below altitude 10° 05:52:27 10° 16° (NNE) 2,015 6.3 -7.5°
Sets 05:54:42 0° 13° (NNE) 2,926 7.1 -7.1°
